AO-07 1 07530U 74089B 17207.89098135 -.00000033 00000-0 73103-4 0 9998 2 07530 101.6334 175.7987 0011583 245.0278 139.9357 12.53627916953832 UO-11 1 14781U 84021B 17207.70890915 .00000079 00000-0 15943-4 0 9994 2 14781 097.6941 251.9615 0009977 073.7380 286.4931 14.82912371775200 LO-19 1 20442U 90005G 17207.87754642 -.00000009 00000-0 12662-4 0 9997 2 20442 098.5764 143.9915 0012499 035.3756 324.8255 14.32864896437249 HUBBLE 1 20580U 90037B 17207.97326542 .00000442 00000-0 16203-4 0 9995 2 20580 028.4699 104.6144 0002608 238.5732 225.5541 15.08804677296211 MET-2/21 1 22782U 93055A 17207.56953439 .00000036 00000-0 18896-4 0 9999 2 22782 082.5502 352.3277 0021515 323.2217 083.3631 13.83801412206876 AO-27 1 22825U 93061C 17207.86550176 -.00000008 00000-0 14536-4 0 9995 2 22825 098.8153 173.9422 0007754 209.3653 150.7094 14.30001333242804 IO-26 1 22826U 93061D 17207.39776860 -.00000007 00000-0 14909-4 0 9997 2 22826 098.8094 173.5459 0008412 200.8111 159.2729 14.30330427242934 FO-29 1 24278U 96046B 17207.65003149 -.00000023 00000-0 14545-4 0 9992 2 24278 098.5578 085.6498 0349523 235.0596 121.7250 13.53077201033961 NOAA-15 1 25338U 98030A 17207.79403171 .00000032 00000-0 32315-4 0 9993 2 25338 098.7813 218.7829 0011785 091.9587 268.2943 14.25808057998388 GO-32 1 25397U 98043D 17207.90483240 -.00000012 00000-0 13760-4 0 9992 2 25397 098.6114 149.4086 0000469 178.3910 181.7271 14.23625365989221 ISS 1 25544U 98067A 17207.85089522 .00000752 00000-0 18587-4 0 9993 2 25544 051.6402 200.6049 0006226 077.3560 350.9035 15.54225878067921 NO-44 1 26931U 01043C 17207.82120814 -.00000033 00000-0 19248-4 0 9997 2 26931 067.0523 348.9336 0007341 260.0270 100.0003 14.30467464825945 SO-50 1 27607U 02058C 17207.86052930 -.00000034 00000-0 15459-4 0 9993 2 27607 064.5562 004.3258 0030086 076.0523 284.3922 14.75342689784833 CO-55 1 27844U 03031E 17207.96986796 .00000027 00000-0 32137-4 0 9998 2 27844 098.6893 216.3973 0008745 228.0216 132.0218 14.22048953729931 CO-57 1 27848U 03031J 17207.69890849 .00000021 00000-0 29415-4 0 9994 2 27848 098.6985 216.4059 0008571 239.1943 120.8391 14.21662442729784 RS-22 1 27939U 03042A 17207.96124889 .00000093 00000-0 25083-4 0 9997 2 27939 097.9447 351.4309 0014418 099.5133 009.1495 14.66581549739001 NOAA-18 1 28654U 05018A 17207.93934177 -.00000013 00000-0 18366-4 0 9992 2 28654 099.1807 231.1217 0013629 324.0764 035.9490 14.12343291627774 CO-58 1 28895U 05043F 17207.89919820 .00000083 00000-0 24741-4 0 9990 2 28895 097.8691 008.3688 0017311 022.8108 337.3860 14.63413923626067 Falconsat-3 1 30776U 07006E 17207.90678997 .00002039 00000-0 65164-4 0 9998 2 30776 035.4346 174.6015 0003655 305.9148 054.1238 15.32447186574351 CO-65 1 32785U 08021C 17207.78595403 .00000178 00000-0 25045-4 0 9990 2 32785 097.5648 230.2474 0014174 042.7804 317.4513 14.87912564500714 AAUSAT2 1 32788U 08021F 17207.88641991 .00000205 00000-0 24421-4 0 9996 2 32788 097.5562 242.3707 0011956 006.0171 354.1191 14.93915539501500 DO-64 1 32789U 08021G 17207.71941622 .00001270 00000-0 93754-4 0 9991 2 32789 097.5560 265.1142 0011926 332.9056 027.1547 15.04979909502715 CO-66 1 32791U 08021J 17207.52375266 .00000207 00000-0 26779-4 0 9990 2 32791 097.5614 234.4831 0014154 028.9850 331.2151 14.90255652500929 RS-30 1 32953U 08025A 17207.96228137 .00000002 00000-0 -59442-4 0 9993 2 32953 082.5004 214.9191 0018563 194.6003 165.4543 12.43078206416367 PRISM 1 33493U 09002B 17207.90186049 .00000918 00000-0 88013-4 0 9999 2 33493 098.1639 092.0034 0014382 316.2827 043.7259 14.95724430461713 NOAA-19 1 33591U 09005A 17207.87470365 .00000048 00000-0 51294-4 0 9999 2 33591 099.0956 175.2706 0014307 156.6173 203.5651 14.12197331435997 TISAT-1 1 36799U 10035E 17207.82175972 .00000433 00000-0 50516-4 0 9992 2 36799 098.0664 331.3612 0012214 190.5727 169.5235 14.90429179381682 JUGNU 1 37839U 11058B 17207.36218539 .00000299 00000-0 17638-4 0 9998 2 37839 019.9600 212.9448 0018740 255.1348 236.6138 14.12587784299135 SRMSAT 1 37841U 11058D 17207.48114682 .00000306 00000-0 23094-4 0 9990 2 37841 019.9711 254.7177 0011843 151.9207 340.5940 14.10579380298741 AO-71 1 37854U 11061E 17207.23182240 .00001226 00000-0 73358-4 0 9996 2 37854 101.6978 100.7154 0167147 319.5116 039.3755 15.04212829312351 HRBE 1 37855U 11061F 17207.73462519 .00000809 00000-0 50556-4 0 9993 2 37855 101.7104 099.2535 0180361 324.7802 034.1595 15.03175987312269 ALMASAT-1 1 38078U 12006B 17207.96340516 .00014433 37427-5 16271-3 0 9999 2 38078 069.4377 025.1959 0308297 232.4688 124.8109 15.23034901290843 HORYU-2 1 38340U 12025D 17207.96612007 .00000148 00000-0 29915-4 0 9999 2 38340 098.3767 213.2898 0012076 159.3237 200.8462 14.75360271268744 RS-40 1 38735U 12041C 17207.90507372 .00000029 00000-0 14214-3 0 9990 2 38735 082.4779 299.4200 0015623 303.1388 056.8192 12.42574790226602 BEESAT-3 1 39134U 13015E 17207.81535036 .00000723 00000-0 44876-4 0 9993 2 39134 064.8646 098.5410 0037649 258.4472 101.2427 15.17899177235118 BEESAT-2 1 39136U 13015G 17207.84552905 .00000545 00000-0 39041-4 0 9992 2 39136 064.8702 109.6872 0033512 277.8971 081.8351 15.15169757234898 ZACUBE-1 1 39417U 13066B 17207.82757406 .00000177 00000-0 28846-4 0 9993 2 39417 097.6265 248.1428 0060415 139.2457 221.3299 14.80729999198641 TRITON-1 1 39427U 13066M 17207.80610959 .00000147 00000-0 31734-4 0 9990 2 39427 097.6372 220.5084 0113275 221.2814 137.9787 14.67477920196668 GOMX-1 1 39430U 13066Q 17207.95217334 .00000129 00000-0 32978-4 0 9991 2 39430 097.6662 203.9603 0150347 277.5872 080.8274 14.58888342195542 LO-74 1 39440U 13066AA 17207.64649693 .00000167 00000-0 30440-4 0 9999 2 39440 097.6265 236.8387 0081047 171.2981 188.9657 14.75470091196719 AO-73 1 39444U 13066AE 17207.92267496 .00000222 00000-0 33893-4 0 9998 2 39444 097.6281 249.3380 0059679 135.6099 224.9922 14.81467802196903 SPROUT 1 39770U 14029E 17207.81772432 .00000625 00000-0 77233-4 0 9992 2 39770 097.8746 306.8036 0008899 189.0197 171.0826 14.86288724172021 DUCHIFAT-1 1 40021U 14033M 17207.72123761 .00000331 00000-0 40291-4 0 9991 2 40021 097.9162 120.9419 0013260 164.6951 195.4670 14.89922512168485 NANOSATCBR1 1 40024U 14033Q 17207.74125935 .00000225 00000-0 29690-4 0 9993 2 40024 097.9120 119.7872 0012549 165.3462 194.8121 14.89243711168431 EO-79 1 40025U 14033R 17207.74196117 .00000204 00000-0 27991-4 0 9993 2 40025 097.9101 118.7708 0012678 168.5653 191.5853 14.88442971167868 DTUSAT-2 1 40030U 14033W 17207.68995605 .00000215 00000-0 29478-4 0 9995 2 40030 097.9064 117.7917 0012251 163.0822 197.0805 14.88065428167819 EO-80 1 40032U 14033Y 17207.80115002 .00000198 00000-0 27669-4 0 9996 2 40032 097.9072 117.9085 0012224 163.1428 197.0197 14.88000161168336 ANTELSAT 1 40034U 14033AA 17207.93581373 .00000145 00000-0 29310-4 0 9997 2 40034 097.8540 090.6266 0059303 163.7005 196.6129 14.73716066166241 VELOX-1 1 40057U 14034E 17207.72234339 .00000251 00000-0 43072-4 0 9996 2 40057 098.1917 308.5392 0009745 295.4213 064.5997 14.77147939165592 DAURIA DX 1 1 40071U 14037C 17207.92512573 .00000059 00000-0 15038-4 0 9993 2 40071 098.3418 320.5789 0007392 290.0655 069.9759 14.81028977164855 UKUBE-1 1 40074U 14037F 17207.75015801 .00000222 00000-0 34069-4 0 9996 2 40074 098.3514 324.4537 0003387 290.9057 069.1796 14.83524591165044 HODOYOSHI-1 1 40299U 14070B 17207.83053672 .00000565 00000-0 27536-4 0 9990 2 40299 097.4035 289.9691 0012244 319.8460 145.8617 15.22311672150976 CHUBUSAT-1 1 40300U 14070C 17207.89872895 .00000553 00000-0 28031-4 0 9993 2 40300 097.3953 287.0659 0019719 326.8629 145.2193 15.20917297150829 QSAT-EOS 1 40301U 14070D 17207.87562400 .00001326 00000-0 58384-4 0 9993 2 40301 097.3881 287.2042 0026694 320.8644 130.7300 15.23318668150873 FIREBIRD FU3 1 40377U 15003B 17207.75892797 .00001667 00000-0 74807-4 0 9991 2 40377 099.1228 039.6138 0135039 231.0049 127.9090 15.15487585136999 FIREBIRD FU4 1 40378U 15003C 17207.75059657 .00001634 00000-0 73320-4 0 9995 2 40378 099.1231 039.6441 0135233 230.9391 127.9741 15.15508573137002 GRIFEX 1 40379U 15003D 17207.93154015 .00001187 00000-0 57776-4 0 9990 2 40379 099.1253 037.4729 0141020 238.4521 120.2870 15.13038313136883 NO-84 1 40654U 15025D 17207.08677316 .00006746 00000-0 12826-3 0 00364 2 40654 054.9961 062.7175 0179533 004.8413 355.4298 15.34025473005680 NO-83 1 40655U 15025E 17207.51355897 .00013328 00000-0 19786-3 0 00399 2 40655 054.9800 033.7436 0147042 021.6632 339.0550 15.44108650005758 DEORBITSAIL 1 40719U 15032E 17207.50671983 .00000333 00000-0 55599-4 0 9994 2 40719 097.9760 100.7648 0017304 021.5967 338.5969 14.76090722110128 NUDT-PHONESAT 1 40900U 15049B 17207.94819820 .00001718 00000-0 83794-4 0 9992 2 40900 097.4425 215.3086 0015877 087.7029 272.6023 15.19551630102496 XW-2A 1 40903U 15049E 17207.91825447 .00001667 00000-0 45361-4 0 9995 2 40903 097.4193 234.1097 0016422 119.6848 240.6035 15.38886964103753 XW-2C 1 40906U 15049H 17207.94763196 .00000552 00000-0 33372-4 0 9994 2 40906 097.4550 212.6442 0016960 078.4807 281.8328 15.14588100102253 XW-2D 1 40907U 15049J 17207.92828142 .00000603 00000-0 36006-4 0 9990 2 40907 097.4520 212.3780 0016309 076.9160 283.3891 15.14695380102256 LILACSAT-2 1 40908U 15049K 17207.96547371 .00000345 00000-0 23042-4 0 9996 2 40908 097.4623 212.1527 0017851 075.3074 285.0135 15.13150465102189 XW-2F 1 40910U 15049M 17207.84118644 .00000928 00000-0 52191-4 0 9997 2 40910 097.4539 213.0395 0017141 074.9142 285.3986 15.15601038102168 XW-2B 1 40911U 15049N 17207.93537483 .00000591 00000-0 35395-4 0 9997 2 40911 097.4562 212.7810 0016210 077.2417 283.0626 15.14656401102158 DCBB 1 40912U 15049P 17207.91015852 .00001075 00000-0 56475-4 0 9997 2 40912 097.4514 215.0604 0017405 066.5676 021.0225 15.17709924102313 TW-1C 1 40926U 15051B 17207.89474800 .00006176 00000-0 14079-3 0 9994 2 40926 097.2267 247.1533 0012444 033.5049 091.0462 15.43204255103041 TW-1A 1 40928U 15051D 17207.75673662 .00003088 00000-0 89103-4 0 9998 2 40928 097.2242 242.8597 0014234 059.5635 032.4729 15.36350157102775 IO-86 1 40931U 15052B 17207.35408804 .00000639 00000-0 59604-0 0 9991 2 40931 006.0026 313.4738 0013142 074.6083 285.5556 14.76533907098762 GomX-3 1 40949U 98067HA 16292.18357804 .08527750 12374-4 77882-3 0 9992 2 40949 51.6055 106.7696 0006699 286.1344 73.8944 16.38002265 59645 LQSat 1 40958U 15057A 17207.91967885 .00000015 00000-0 10130-4 0 9999 2 40958 097.9766 282.5417 0017061 301.8110 058.1430 14.72974171096975 AO-85 1 40967U 15058D 17207.21099873 .00000093 00000-0 30059-4 0 00366 2 40967 064.7773 100.5071 0173720 063.4129 298.4659 14.75453106005555 ATHENOXAT-1 1 41168U 15077C 17207.49099537 .00002113 00000-0 81662-4 0 9997 2 41168 014.9593 242.2766 0014394 199.5681 031.8478 15.11672673088996 ChubuSat-2 1 41338U 16012B 17207.42042982 .00000269 00000-0 14370-4 0 9993 2 41338 031.0022 223.0851 0013908 087.9283 272.2945 14.99762613078888 ChubuSat-3 1 41339U 16012C 17207.40983926 .00000293 00000-0 16229-4 0 9996 2 41339 031.0099 222.2361 0013587 094.3438 265.8753 14.99966544078869 Horyu-4 1 41340U 16012D 17207.36631961 .00000369 00000-0 21726-4 0 9994 2 41340 031.0041 219.7362 0014228 102.7410 257.4817 15.00628458078902 OUFTI-1 1 41458U 16025C 17207.91760534 .00002306 00000-0 12599-3 0 9998 2 41458 098.1827 247.7684 0174966 156.6481 204.2816 15.03293690068556 e-st@r-II 1 41459U 16025D 17207.87618667 .00001014 00000-0 58203-4 0 9991 2 41459 098.1789 247.6700 0175815 157.2272 203.6874 15.03101516068531 AAUSAT4 1 41460U 16025E 17207.78331531 .00003036 00000-0 16480-3 0 9991 2 41460 098.1767 247.6970 0168151 155.5400 205.3898 15.04052668068547 MinXSS 1 41474U 98067HU 17125.52237589 .05724416 12300-4 86147-3 0 9995 2 41474 051.6449 208.6967 0008167 329.0747 030.9230 16.33400422055623 CADRE 1 41475U 98067HV 17003.74787607 .12518598 12537-4 55989-3 0 9998 2 41475 51.6110 110.0165 0004040 312.3134 47.7551 16.43344525 36494 NODES 1 1 41477U 98067HX 17207.85813664 .00093163 00000-0 33171-3 0 9991 2 41477 051.6249 156.1189 0001137 071.8621 288.2507 15.88153929068366 NODES 2 1 41478U 98067HY 17207.85409258 .00085360 00000-0 31775-3 0 9990 2 41478 051.6288 156.8909 0001283 072.3515 287.7630 15.87286594068351 LO-87 1 41557U 16033B 17207.65688896 .00001008 00000-0 40615-4 0 9997 2 41557 097.4622 287.1741 0013107 223.3032 136.7178 15.27150116064452 NuSat2 1 41558U 16033C 17207.82472502 .00001074 00000-0 43299-4 0 9996 2 41558 097.4649 287.4013 0012541 221.2436 138.7856 15.26986295064474 Lapan A3 1 41603U 16040E 17207.82661256 .00000298 00000-0 17323-4 0 9997 2 41603 097.4587 269.3319 0012284 300.8458 170.4825 15.19372240060674 Swayam 1 41607U 16040J 17207.87028020 .00001177 00000-0 56313-4 0 9991 2 41607 097.4578 269.7551 0012816 301.2897 058.7083 15.20904366060635 Pratham 1 41783U 16059A 17207.90178375 .00000049 00000-0 19030-4 0 9991 2 41783 098.1642 268.8588 0034414 038.3280 322.0357 14.62846391044408 AlSat 1N 1 41789U 16059G 17207.85745586 .00000053 00000-0 19337-4 0 9990 2 41789 098.1651 269.3930 0029236 032.8488 327.4513 14.64059426044417 ScatSat 1 41790U 16059H 17207.93900757 .00000009 00000-0 13214-4 0 9993 2 41790 098.0618 256.2995 0011831 031.3109 328.8788 14.50114252044023 TY-1 1 41844U 16066D 17207.85668828 .00001051 00000-0 48758-4 0 9991 2 41844 097.4043 214.4118 0017771 097.7322 000.7186 15.22123841039377 CAS-2T 1 41845U 16066E 17207.85549935 .00000068 00000-0 20204-4 0 9992 2 41845 098.7757 224.4360 0367525 130.4124 232.9724 14.37767171037194 Pegasus-1 1 41846U 16066F 17207.86007670 .00000289 00000-0 53792-4 0 9992 2 41846 098.7796 224.1989 0370528 131.8389 231.5066 14.37045546037174 STARS-C 1 41895U 98067KR 17207.41917973 .00021268 00000-0 23191-3 0 9993 2 41895 051.6364 195.6152 0005256 087.8439 272.3157 15.63321655034124 Tancredo 1 1 41931U 98067KT 17207.96497444 .00048482 00000-0 37576-3 0 9999 2 41931 051.6345 187.9698 0007491 060.2698 299.9045 15.71303829029844 TO-89 1 41932U 98067KU 17207.86953390 .00010070 00000-0 12769-3 0 9995 2 41932 051.6393 195.6504 0006373 057.8183 302.3427 15.60111945029734 AOBA-V3LOX3 1 41935U 98067KX 17207.33852742 .00012364 00000-0 15299-3 0 9998 2 41935 051.6388 198.0990 0005846 058.7533 301.4032 15.60510670029752 OSNSAT 1 41939U 98067KZ 17207.48101964 .00026336 00000-0 26155-3 0 9998 2 41939 051.6362 193.7695 0007525 057.9993 302.1733 15.65541488029076 EO-88 1 42017U 17008BX 17207.92050091 .00001261 00000-0 56489-4 0 9999 2 42017 097.4925 269.2970 0008292 084.7929 275.4254 15.23099188024536 HAVELSAT 1 42700U 98067LH 17207.88889607 .00009761 00000-0 14115-3 0 9992 2 42700 051.6385 199.5092 0007166 104.1375 256.0413 15.56609453011129 SOMP2 1 42701U 98067LJ 17207.95671864 .00008773 00000-0 12833-3 0 9992 2 42701 051.6389 199.2139 0007044 105.3844 254.7926 15.56446813011125 Columbia 1 42702U 98067LK 17207.85845907 .00020868 00000-0 27848-3 0 9994 2 42702 051.6384 199.3059 0007584 094.7067 265.4792 15.58022087011046 PHOENIX 1 42706U 98067LP 17207.95502159 .00009174 00000-0 13347-3 0 9994 2 42706 051.6389 199.2048 0002665 075.3121 284.8166 15.56541992011042 X-CubeSat 1 42707U 98067LQ 17207.95599600 .00009346 00000-0 13597-3 0 9990 2 42707 051.6385 199.2090 0002712 074.6480 285.4811 15.56515814011036 qbee 1 42708U 98067LR 17207.89341778 .00009461 00000-0 13778-3 0 9994 2 42708 051.6386 199.5412 0002776 074.8959 285.2339 15.56472561010989 ZA-AeroSat 1 42713U 98067LU 17207.90475157 .00007780 00000-0 11608-3 0 9993 2 42713 051.6387 199.6164 0003456 049.7417 310.3877 15.56104667010691 LINK 1 42714U 98067LV 17207.96614843 .00012445 00000-0 17963-3 0 9991 2 42714 051.6383 199.2750 0003837 052.5376 307.5964 15.56376059010819 UPSat 1 42716U 98067LX 17207.95634746 .00011061 00000-0 15887-3 0 9992 2 42716 051.6385 199.2109 0005421 103.1587 257.0010 15.56639355010833 SpaceCube 1 42717U 98067LY 17207.89896730 .00009340 00000-0 13670-3 0 9994 2 42717 051.6385 199.5777 0005402 103.7152 256.4441 15.56348647010068 Hoopoe 1 42718U 98067LZ 17207.96020967 .00010315 00000-0 14941-3 0 9990 2 42718 051.6387 199.2372 0005442 102.7841 257.3759 15.56497887010071 Challenger 1 42721U 98067MA 17207.96846582 .00013845 00000-0 19735-3 0 9990 2 42721 051.6383 199.2890 0008919 087.9969 272.2044 15.56577576009775 NJUST-1 1 42722U 98067MB 17207.59816191 .00008579 00000-0 12842-3 0 9993 2 42722 051.6386 201.3166 0008585 089.6177 270.5798 15.55839455009716 UNSW-EC0 1 42723U 98067MC 17207.20702935 .00011322 00000-0 16528-3 0 9997 2 42723 051.6387 203.2052 0008600 086.5263 273.6712 15.56150523009637 DUTHsat 1 42724U 98067MD 17207.84481960 .00013581 00000-0 19478-3 0 9996 2 42724 051.6385 199.9643 0007845 089.1616 271.0274 15.56438964009659 LO-90 1 42725U 98067ME 17207.60048391 .00009132 00000-0 13638-3 0 9997 2 42725 051.6386 201.3328 0007591 091.1574 269.0287 15.55814242009616 nSIGHT1 1 42726U 98067MF 17207.86584645 .00004739 00000-0 75424-4 0 9993 2 42726 051.6391 200.1056 0007456 094.7537 265.4305 15.55354464009667 QBITO 1 42728U 98067MH 17207.52947038 .00010772 00000-0 15808-3 0 9990 2 42728 051.6389 201.6102 0004737 092.6374 267.5159 15.56086706009414 Aalto-2 1 42729U 98067MJ 17207.85044169 .00010343 00000-0 15205-3 0 9995 2 42729 051.6386 200.0031 0004752 093.5659 266.5876 15.56091579009474 SUSat 1 42730U 98067MK 17207.91611222 .00009159 00000-0 13580-3 0 9991 2 42730 051.6385 199.6910 0004811 092.8282 267.3260 15.56021845009480 i-INSPIRE II 1 42731U 98067ML 17207.91235778 .00011560 00000-0 16834-3 0 9994 2 42731 051.6381 199.6618 0008817 046.8600 313.3127 15.56191137009526 PolyITAN-2-SAU 1 42732U 98067MM 17207.39973301 .00011115 00000-0 16260-3 0 9997 2 42732 051.6378 202.2379 0008688 045.1635 315.0061 15.56113491009448 SNUSAT-1 1 42733U 98067MN 17207.46729401 .00010334 00000-0 15234-3 0 9998 2 42733 051.6379 201.9393 0008529 046.7292 313.4410 15.55995268009452 ExAlta-1 1 42734U 98067MP 17207.52702217 .00012238 00000-0 17759-3 0 9991 2 42734 051.6382 201.5891 0010417 066.7735 293.4352 15.56207569009418 Aoxiang-1 1 42735U 98067MQ 17207.91830074 .00008354 00000-0 12498-3 0 9997 2 42735 051.6385 199.7039 0009274 088.1795 272.0259 15.55889557010892 BeEagleSat 1 42736U 98067MR 17207.46872365 .00009584 00000-0 14214-3 0 9991 2 42736 051.6385 201.9515 0009188 085.5466 274.6575 15.55926360009518 Atlantis 1 42737U 98067MS 17207.57338398 .00020291 00000-0 27945-3 0 9990 2 42737 051.6378 201.1500 0009627 080.6751 279.5329 15.57176738009427 CAS-4B 1 42759U 17034B 17207.89318627 .00000194 00000-0 25730-4 0 9998 2 42759 043.0195 068.6211 0008348 243.9493 192.3331 15.08927274006308 CAS-4A 1 42761U 17034D 17207.89105058 .00000209 00000-0 26584-4 0 9998 2 42761 043.0201 068.6078 0008758 243.9999 191.7233 15.09001152006297 Object A 1 42765U 17036A 17207.89570518 .00001083 00000-0 52274-4 0 9997 2 42765 097.4473 267.2697 0013467 131.0435 229.1967 15.20737064005845 Object B 1 42766U 17036B 17207.92337055 .00000893 00000-0 45157-4 0 9999 2 42766 097.4475 267.2342 0017885 118.4793 241.8245 15.19481925005120 Object C 1 42767U 17036C 17207.94806790 .00000450 00000-0 24554-4 0 9996 2 42767 097.4467 267.1980 0010386 119.2319 240.9955 15.19249144005124 LituanicaSAT 2 1 42768U 17036D 17207.92106338 .00001766 00000-0 85806-4 0 9994 2 42768 097.4472 267.2353 0017959 121.8211 238.4776 15.19619278005132 Object E 1 42769U 17036E 17207.92003976 .00000516 00000-0 27383-4 0 9997 2 42769 097.4473 267.2380 0017331 119.8725 240.4235 15.19616573005054 InflateSail 1 42770U 17036F 17207.89171972 .00142374 00000-0 48920-2 0 9994 2 42770 097.4483 267.4271 0016035 167.3293 192.8354 15.29395716005074 Object G 1 42771U 17036G 17207.91728487 .00001534 00000-0 74664-4 0 9995 2 42771 097.4474 267.2414 0017014 120.9939 239.2970 15.19784596005079 Object H 1 42772U 17036H 17207.91603980 .00001529 00000-0 74318-4 0 9996 2 42772 097.4473 267.2425 0016727 120.5168 239.7721 15.19838729005078 Object J 1 42773U 17036J 17207.91495166 .00001709 00000-0 82553-4 0 9992 2 42773 097.4474 267.2442 0016512 120.5105 239.7763 15.19890619005074 Object K 1 42774U 17036K 17207.91440962 .00001253 00000-0 61361-4 0 9995 2 42774 097.4476 267.2463 0016412 120.3610 239.9250 15.19904047005061 Aalto 1 1 42775U 17036L 17207.91223963 .00000721 00000-0 36629-4 0 9994 2 42775 097.4474 267.2488 0015991 119.1916 241.0920 15.19977131005076 URSA MAIOR 1 42776U 17036M 17207.91142216 .00000744 00000-0 37626-4 0 9999 2 42776 097.4477 267.2509 0015866 119.5303 240.7517 15.20014662005070 Object N 1 42777U 17036N 17207.90574724 .00001418 00000-0 68314-4 0 9999 2 42777 097.4485 267.2627 0014927 123.5641 236.7022 15.20297332005060 Max Valier Sat 1 42778U 17036P 17207.90310923 .00000840 00000-0 41646-4 0 9996 2 42778 097.4491 267.2695 0014427 124.5827 235.6772 15.20394266005069 Object Q 1 42779U 17036Q 17207.90146585 .00001430 00000-0 68495-4 0 9995 2 42779 097.4478 267.2644 0014403 129.5035 230.7477 15.20493356005056 Object R 1 42780U 17036R 17207.90084695 .00001301 00000-0 62543-4 0 9995 2 42780 097.4475 267.2637 0014257 129.3235 230.9266 15.20514880005069 Object S 1 42781U 17036S 17207.90041377 .00001522 00000-0 72565-4 0 9996 2 42781 097.4474 267.2638 0014226 129.6388 230.6105 15.20546309005057 Object T 1 42782U 17036T 17207.89979343 .00001456 00000-0 69528-4 0 9999 2 42782 097.4476 267.2657 0014088 129.4590 230.7895 15.20572982005053 Object U 1 42783U 17036U 17207.89915292 .00000883 00000-0 43405-4 0 9992 2 42783 097.4474 267.2657 0014075 130.9273 229.3184 15.20572713005061 Pegasus 1 42784U 17036V 17207.89853583 .00000996 00000-0 48497-4 0 9998 2 42784 097.4475 267.2671 0014006 131.0952 229.1495 15.20606261005068 Object W 1 42785U 17036W 17207.89831203 .00000503 00000-0 26075-4 0 9996 2 42785 097.4476 267.2678 0013946 131.0113 229.2331 15.20607932005132 Object X 1 42786U 17036X 17207.89726237 .00000428 00000-0 22619-4 0 9993 2 42786 097.4475 267.2687 0013768 131.3186 228.9237 15.20653379005134 NUDATSat 1 42787U 17036Y 17207.89632015 .00001443 00000-0 68627-4 0 9991 2 42787 097.4475 267.2695 0013682 131.4260 228.8153 15.20727455004900 SUCHAI 1 1 42788U 17036Z 17207.89659003 .00001186 00000-0 57021-4 0 9998 2 42788 097.4474 267.2690 0013666 131.2539 228.9876 15.20701323005139 Object AA 1 42789U 17036AA 17207.89564476 .00001118 00000-0 53867-4 0 9997 2 42789 097.4474 267.2699 0013474 131.1455 229.0946 15.20741554005053 VZLUSAT 1 1 42790U 17036AB 17207.89409448 .00001299 00000-0 61937-4 0 9993 2 42790 097.4471 267.2706 0013214 131.5105 228.7267 15.20819083005054 Object AC 1 42791U 17036AC 17207.89328034 .00001089 00000-0 52383-4 0 9997 2 42791 097.4473 267.2728 0013051 131.7882 228.4471 15.20845808005041 Robusta 1B 1 42792U 17036AD 17207.89296720 .00001157 00000-0 55440-4 0 9997 2 42792 097.4471 267.2720 0013015 132.1712 228.0631 15.20863771005064 Object AE 1 42793U 17036AE 17207.88840694 .00000785 00000-0 38440-4 0 9999 2 42793 097.4470 267.2778 0012044 132.4417 227.7839 15.21054940005138 D-SAT 1 42794U 17036AF 17207.88673550 .00000671 00000-0 33258-4 0 9991 2 42794 097.4468 267.2789 0011251 129.6232 230.5998 15.21125564005050 Object AG 1 42795U 17036AG 17207.88611402 .00001689 00000-0 78781-4 0 9990 2 42795 097.4466 267.2779 0011209 129.9561 230.2661 15.21180314005057 Object AH 1 42796U 17036AH 17207.74888613 .00015562 00000-0 11387-3 0 9999 2 42796 094.6111 257.3927 0027690 177.1751 182.9680 15.72654344005101 Object U 1 42820U 98067MU 17207.37776162 .00009093 00000-0 13864-3 0 9998 2 42820 051.6384 202.8427 0004244 037.9398 322.1892 15.55264114002961 Object V 1 42821U 98067MV 17207.89226270 .00008330 00000-0 12776-3 0 9990 2 42821 051.6387 200.2787 0004286 041.6485 318.4832 15.55230816003034 Object W 1 42822U 98067MW 17207.89260941 .00008443 00000-0 12951-3 0 9994 2 42822 051.6387 200.2815 0004323 043.1925 316.9404 15.55206576003039 Object X 1 42823U 98067MX 17207.95746083 .00008585 00000-0 13170-3 0 9999 2 42823 051.6389 199.9655 0008008 055.4411 304.7335 15.55164220003046 Object Y 1 42824U 98067MY 17207.95811639 .00008506 00000-0 13081-3 0 9994 2 42824 051.6389 199.9699 0007818 056.4839 303.6898 15.55109847003044 TechnoSat 1 42829U 17042E 17207.95452965 .00000194 00000-0 25256-4 0 9999 2 42829 097.6129 117.2059 0013767 194.9447 165.1366 14.90632071001875 Mayak 1 42830U 17042F 17207.95431741 .00000619 00000-0 68535-4 0 9999 2 42830 097.6133 117.2076 0013902 192.5523 167.5351 14.90663721001877 /EX
